This is the latest recevied weather packets stored in our database for station/object K8RRT. If no packets are shown the sender has not sent any weather packets the latest 10 day(s).
| Time | Temp. | Humidity | Pressure | Rain* | Wind** | Luminosity | Snow |
|---|---|---|---|---|---|---|---|
| 1777913868 | 20.56° C | 61% | 1007.4 hPa | 0 mm | - | 756 W/m² | - |
| 1777913565 | 20° C | 61% | 1007.5 hPa | 0 mm | - | 749 W/m² | - |
| 1777913261 | 20° C | 61% | 1007.7 hPa | 0 mm | - | 720 W/m² | - |
| 1777912959 | 19.44° C | 60% | 1007.6 hPa | 0 mm | - | 776 W/m² | - |
| 1777912654 | 19.44° C | 64% | 1007.9 hPa | 0 mm | - | 772 W/m² | - |
| 1777912351 | 19.44° C | 64% | 1008 hPa | 0 mm | - | 758 W/m² | - |
| 1777912047 | 19.44° C | 64% | 1008.1 hPa | 0 mm | - | 780 W/m² | - |
| 1777911743 | 19.44° C | 66% | 1007.9 hPa | 0 mm | - | 834 W/m² | - |
| 1777911440 | 19.44° C | 67% | 1008.2 hPa | 0 mm | - | 831 W/m² | - |
| 1777911137 | 18.89° C | 67% | 1008.3 hPa | 0 mm | - | 747 W/m² | - |
| 1777910834 | 17.78° C | 69% | 1008.2 hPa | 0 mm | - | 445 W/m² | - |
| 1777910531 | 18.33° C | 68% | 1008.4 hPa | 0 mm | - | 549 W/m² | - |
| 1777910228 | 17.78° C | 68% | 1008.6 hPa | 0 mm | - | 477 W/m² | - |
| 1777909925 | 17.78° C | 69% | 1008.8 hPa | 0 mm | - | 367 W/m² | - |
| 1777909621 | 17.78° C | 69% | 1008.6 hPa | 0 mm | - | 362 W/m² | - |
| 1777909319 | 17.22° C | 70% | 1008.5 hPa | 0 mm | - | 329 W/m² | - |
| 1777909017 | 17.78° C | 69% | 1008.5 hPa | 0 mm | - | 265 W/m² | - |
| 1777908714 | 17.78° C | 69% | 1008.7 hPa | 0 mm | - | 309 W/m² | - |
| 1777908411 | 17.78° C | 70% | 1008.7 hPa | 0 mm | - | 702 W/m² | - |
| 1777908108 | 17.22° C | 70% | 1009.2 hPa | 0 mm | - | 646 W/m² | - |
| 1777907804 | 16.67° C | 70% | 1009.1 hPa | 0 mm | - | 382 W/m² | - |
| 1777907499 | 16.67° C | 74% | 1009.3 hPa | 0 mm | - | 482 W/m² | - |
| 1777907196 | 16.11° C | 75% | 1009.3 hPa | 0 mm | - | 569 W/m² | - |
| 1777906893 | 16.11° C | 76% | 1009.3 hPa | 0 mm | - | 514 W/m² | - |
| 1777906590 | 15.56° C | 76% | 1009.2 hPa | 0 mm | - | 406 W/m² | - |
* Rain latest hour (hover to see other rain measurements)
** Current wind speed in m/s (hover to see current wind gust speed)